Location: Bougivais
(48.8622°N, 2.1415°E)
Time: 04:32:06
(UTC+00:00)

Daily predictions for brighter satellites

Satellite Brightness Start Highest point End
(mag) Time Altitude Azimuth Time Altitude Azimuth Time Altitude Azimuth
Cosmos 468 4.5 00:03:47 31° SSW 00:06:23 87° ESE 00:11:44 10° NNE
Cosmos 2082 Rocket 3.0 00:01:46 10° NW 00:06:53 37° WSW 00:09:02 27° SSW
COSMOS 2455 4.3 00:04:46 18° SE 00:07:14 23° ESE 00:11:47 10° ENE
MetOp-A 3.5 00:06:33 41° SSW 00:07:38 58° WSW 00:11:23 10° NNW
Nadezhda 1 Rocket 4.1 00:04:29 27° SSW 00:07:59 70° WNW 00:14:13 10° N
Cosmos 2278 Rocket 3.5 00:06:46 10° WSW 00:11:58 36° NW 00:17:12 10° NNE
Cosmos 1869 4.1 00:09:08 10° N 00:12:22 36° ENE 00:13:40 26° ESE
CZ-4C R/B 4.2 00:12:32 10° NNE 00:15:54 33° E 00:16:54 28° SE
Cosmos 1356 Rocket 3.9 00:12:36 10° N 00:16:31 50° ENE 00:18:25 27° SE
SL-8 R/B 3.7 00:15:45 28° SW 00:18:00 55° SSE 00:22:38 10° E
Cosmos 1452 Rocket 3.9 00:13:39 10° NNW 00:18:44 50° WSW 00:20:54 31° SSW
Cosmos 1992 Rocket 4.3 00:13:39 10° NNW 00:18:50 65° ENE 00:22:25 20° SE
USA 308 3.8 00:23:07 24° ESE 00:23:07 24° ESE 00:26:07 10° ENE
Cosmos 1908 Rocket 4.1 00:19:19 10° N 00:23:41 54° ENE 00:26:03 25° SE
NOSS 3-1 (C) 3.1 00:22:32 33° S 00:24:22 54° ESE 00:29:44 10° NE
Cosmos 972 Rocket 4.4 00:26:58 10° NNW 00:32:32 53° WSW 00:34:55 30° SSW
Cosmos 1174 4.5 00:30:24 21° WSW 00:32:36 44° NW 00:35:53 10° NNE
Cosmos 967 Rocket 4.5 00:29:04 25° SSW 00:33:05 83° SE 00:39:35 10° NE
CZ-3B R/B 4.3 00:28:33 24° SSW 00:33:07 65° SE 01:02:52 10° ENE
COSMOS 2406 3.6 00:29:03 10° NW 00:34:30 47° WSW 00:37:01 29° SSW
Cosmos 2341 Rocket 4.0 00:28:26 10° NNW 00:34:43 79° W 00:38:22 26° S
SL-8 Rocket 4.0 00:32:17 10° NNW 00:38:25 72° W 00:41:58 27° S
SL-4 R/B 2.2 00:42:23 34° SE 00:42:23 34° SE 00:44:55 10° E
Cosmos 1782 Rocket 4.5 00:37:51 10° N 00:42:04 43° ENE 00:45:03 17° SE
NOSS 7 (E) 4.4 00:41:33 10° NW 00:44:37 50° SW 00:44:54 48° SSW
Cosmos 1943 Rocket 4.4 00:43:45 10° W 00:47:48 20° NW 00:51:50 10° N
Cosmos 2297 3.8 00:45:21 28° SSW 00:48:30 72° ESE 00:54:13 10° NNE
DELTA 2 DEB (DPAF) 3.7 00:49:02 10° NNE 00:52:34 64° ESE 00:53:47 37° S
Lacrosse 4 Rocket 1.8 00:48:30 10° NNW 00:52:42 64° NE 00:56:30 12° SE
USA 59 Rocket 2.2 00:51:50 10° WNW 00:53:18 13° NNW 00:54:44 10° N
Cosmos 2369 Rocket 2.1 00:50:46 27° SSW 00:53:57 88° ESE 00:59:36 10° NNE
BREEZE-M DEB (TANK) 4.4 00:29:19 10° W 00:54:46 87° SSW 00:59:34 10° ESE
USA 290 2.1 00:53:32 10° NNW 00:56:39 64° WSW 00:57:15 49° SSW
CZ-2C R/B 3.7 00:55:17 22° SW 00:57:25 30° W 01:01:59 10° NNW
ADEOS Rocket 4.0 00:55:32 10° NNE 01:01:25 38° E 01:05:49 15° SSE
Cosmos 2228 Rocket 3.8 00:59:27 25° SW 01:01:31 43° WNW 01:05:44 10° N
Lacrosse 5 rocket 3.7 01:04:54 10° NW 01:07:39 21° N 01:10:21 10° NE
Geosat 4.2 01:03:12 10° NNE 01:08:11 65° NW 01:11:26 21° SW
USA 276 1.8 01:09:04 30° W 01:10:17 82° NNW 01:13:18 10° ENE
Cosmos 1818 3.7 01:09:43 25° SSW 01:12:49 66° ESE 01:18:14 10° NE
In-Cosmos 22 Rocket 4.4 01:09:23 22° S 01:12:55 67° E 01:18:29 10° NNE
Cosmos 2239 Rocket 4.5 01:10:25 10° N 01:16:39 87° E 01:21:32 17° S
Cosmos 1300 Rocket 3.5 01:12:29 10° NNW 01:16:49 69° W 01:19:07 26° S
Cosmos 1315 Rocket 4.2 01:15:14 10° NW 01:18:11 21° W 01:19:10 19° WSW
ARIANE 6 FM1 Upper Stage 2.9 01:16:12 22° WSW 01:18:49 65° NW 01:22:55 10° NE
Meteor 2-5 Rocket 4.5 01:16:25 20° SW 01:20:07 44° WNW 01:25:45 10° N
CENTAUR R/B 4.5 01:19:46 10° NW 01:27:08 44° NNE 01:35:47 10° ESE
Cosmos 1703 Rocket 4.1 01:25:41 24° SW 01:27:59 45° WNW 01:32:12 10° N
Cosmos 2181 Rocket 4.4 01:25:44 21° SSW 01:29:58 56° WNW 01:36:16 10° N
Cosmos 1934 Rocket 4.3 01:25:22 10° N 01:31:39 70° ENE 01:37:59 10° SSE
ATLAS 5 CENTAUR R/B 2.3 01:30:58 14° W 01:33:00 28° NW 01:35:49 10° NNE
Nadezhda 3 Rocket 4.0 01:29:57 20° S 01:34:26 87° W 01:40:45 10° N
Cosmos 546 4.5 01:32:37 10° WNW 01:36:26 90° SSW 01:40:13 10° ESE
Cosmos 1339 Rocket 4.5 01:32:02 18° S 01:36:41 79° E 01:42:47 10° NNE
Meteor 1-21 Rocket 4.5 01:32:42 18° S 01:37:12 73° E 01:43:07 10° NNE
SeaSat 1 4.4 01:35:15 10° ESE 01:39:30 31° NE 01:43:46 10° NNW
PSLV R/B 4.0 01:36:09 10° N 01:39:57 56° WNW 01:42:06 23° SW
Cosmos 407 Rocket 4.4 01:37:55 14° SSE 01:41:52 39° ESE 01:46:35 10° NE
SJ 16-02 2.7 01:39:46 12° SSE 01:43:01 29° E 01:46:42 10° NE
Nimbus 7 Rocket 4.4 01:37:09 10° NNE 01:43:06 86° ESE 01:47:36 18° SSW
ACS3 Solar Sail 2.9 01:39:00 10° N 01:43:47 29° WNW 01:48:09 12° WSW
Cosmos 921 Rocket 3.2 01:41:09 20° S 01:43:56 60° ESE 01:48:03 10° NNE
USA 308 2.6 01:41:52 20° WSW 01:44:26 85° NNW 01:48:42 10° ENE
Spot 1 4.5 01:42:38 10° N 01:47:37 70° WNW 01:51:01 19° SSW
COSMOS 2455 2.9 01:47:52 18° SW 01:52:32 76° NW 01:58:35 10° NNE
IDEFIX/ARIANE 42P 2.6 01:47:51 10° NNE 01:53:07 88° WNW 01:57:12 17° SSW
Cosmos 540 Rocket 3.7 01:48:58 10° NNW 01:54:05 73° ENE 01:59:09 10° SSE
SL-8 R/B 3.6 01:55:25 10° W 02:00:10 87° S 02:04:57 10° E
ADEOS II 4.2 01:56:36 10° NE 02:00:32 21° E 02:04:25 10° SE
Iridium 82 4.2 02:00:15 25° SSW 02:01:32 49° W 02:04:17 10° N
SL-19 R/B 3.7 01:59:03 13° SSE 02:02:01 86° WSW 02:05:17 10° NNW
Meteor 1-11 4.3 02:00:23 13° S 02:05:20 77° E 02:11:01 10° NNE
NOSS 3-1 (A) 3.1 02:01:56 16° SW 02:05:45 74° NW 02:11:34 10° NE
Resurs 1-4 Rocket 3.3 02:06:07 10° NNE 02:10:59 37° E 02:15:49 10° SSE
Okean 1 Rocket 4.2 02:07:01 10° N 02:11:11 43° ENE 02:15:18 10° SSE
NOSS 3-1 (C) 4.4 02:10:46 10° W 02:15:18 35° NNW 02:20:50 10° NE
Cosmos 1140 Rocket 3.8 02:11:29 15° SW 02:15:33 56° WNW 02:20:36 10° NNE
Cosmos 1656 4.1 02:11:01 12° S 02:15:52 57° ESE 02:21:18 10° NE
H-2A R/B 3.4 02:11:40 10° NNE 02:16:29 35° E 02:21:09 10° SSE
Cosmos 1346 Rocket 2.9 02:14:57 17° SSW 02:17:31 51° WNW 02:21:05 10° N
SL-4 R/B 1.7 02:16:01 10° W 02:19:09 63° NNW 02:22:14 10° ENE
Cosmos 1605 Rocket 4.1 02:13:02 10° N 02:19:23 89° E 02:25:36 10° S
COSMOS 2441 4.5 02:15:58 10° NNE 02:20:52 79° ESE 02:25:39 11° S
H-2A R/B 4.3 02:17:33 10° SE 02:20:56 30° ENE 02:24:23 10° N
Cosmos 1763 Rocket 3.5 02:20:52 10° NNW 02:25:50 56° WSW 02:30:44 10° S
Cosmos 371 Rocket 3.3 02:23:01 14° SSW 02:27:14 80° WNW 02:32:06 10° NNE
Cosmos 304 Rocket 3.9 02:25:25 14° SSW 02:29:31 68° WNW 02:34:18 10° NNE
Lacrosse 4 Rocket 3.0 02:27:19 10° WNW 02:29:59 17° WSW 02:31:50 13° SW
Cosmos 2297 Rocket 2.5 02:28:18 10° NNW 02:33:59 74° ENE 02:39:38 10° SE
OPS 8737 4.4 02:34:09 10° NW 02:37:10 44° SW 02:40:10 10° SSE
NOSS 2-2 (D) 3.6 02:33:56 10° NW 02:37:32 77° NE 02:42:22 10° SE
Cosmos 2369 Rocket 4.0 02:34:29 10° W 02:38:44 22° NW 02:43:01 10° N
Cosmos 1025 Rocket 3.0 02:34:53 10° S 02:39:14 87° WNW 02:43:37 10° N
FENGYUN 3A 4.1 02:36:20 10° N 02:41:29 48° WNW 02:46:36 10° SW
MOZ.5/SAFIR/RUBIN 5/SL-8 3.8 02:37:04 10° S 02:41:35 59° WSW 02:46:10 10° NNW
USA 276 2.2 02:40:13 10° WNW 02:43:10 74° N 02:46:14 10° E
CZ-2D R/B 2.6 02:38:24 10° NNE 02:43:50 62° ESE 02:49:10 10° S
Lacrosse 5 rocket 2.8 02:41:44 10° NW 02:44:55 33° NNE 02:48:00 10° E
ADEOS Rocket 3.7 02:41:00 10° N 02:46:59 42° WNW 02:52:26 10° SW
DMSP B5D2-2 4.3 02:47:29 10° S 02:52:37 55° W 02:57:48 10° NNW
ALOS 2.4 02:48:43 10° NNE 02:53:17 75° ESE 02:57:50 10° S
NOSS 2-2 (C) 3.9 02:50:04 10° NW 02:53:40 41° SW 02:58:29 10° SSE
ATLAS 3B R/B 4.2 02:47:52 10° S 02:54:37 36° ESE 03:01:34 10° NE
Cosmos 468 Rocket 4.0 02:51:45 10° NNW 02:56:48 62° WSW 03:01:49 10° S
ARGOS 4.5 02:53:06 10° NNE 02:58:06 38° E 03:03:05 10° SSE
Spot 2 4.2 02:56:31 10° SSE 03:00:44 74° ENE 03:04:48 10° NNW
Cosmos 2360 4.3 02:55:06 10° SSW 03:00:48 81° WNW 03:06:33 10° NNE
Cosmos 2263 Rocket 4.0 02:56:05 10° NNW 03:01:17 38° NE 03:06:29 10° ESE
Cosmos 1455 Rocket 3.2 03:00:05 10° N 03:04:25 78° E 03:08:45 10° SSE
